Weather History for Fargo, ND

Change the Weather History Date:

Thursday, August 1, 2013

  Actual Average Record
Temperature  
Mean Temperature 69 °F 71 °F  
Max Temperature 83 °F 83 °F 98 °F (1937)
Min Temperature 54 °F 59 °F 42 °F (1927)
Degree Days  
Heating Degree Days 0 0  
Month to date heating degree days 0 0  
Since 1 June heating degree days 79 89  
Since 1 July heating degree days 17 16  
Cooling Degree Days 4 7  
Month to date cooling degree days 4 7  
Year to date cooling degree days 412 347  
Since 1 June cooling degree days 383 316  
Growing Degree Days 18 (Base 50)    
Moisture  
Dew Point 50 °F    
Average Humidity 58    
Maximum Humidity 83    
Minimum Humidity 33    
Precipitation  
Precipitation 0.00 in 0.07 in 2.87 in (2011)
Month to date precipitation 0.00 0.07  
Year to date precipitation 21.53 13.57  
Snow  
Snow 0.00 in 0.00 in 0.00 in ()
Month to date snowfall 0.0 0.0  
Since 1 June snowfall 0.0 0.0  
Since 1 July snowfall 0.0 0.0  
Snow Depth 0.00 in    
Sea Level Pressure  
Sea Level Pressure 29.97 in    
Wind  
Wind Speed 7 mph (WNW)    
Max Wind Speed 20 mph    
Max Gust Speed 24 mph    
Visibility 10 miles    
Events      
T = Trace of Precipitation, MM = Missing Value Source: NWS Daily Summary

Daily Weather History Graph

Daily Weather History Graph

Search for Another Location

Airport:

Trip Planner

Search our weather history database for the weather conditions in past years. The results will help you decide how hot, cold, wet, or windy it might be!

Date:

Astronomy

Aug. 01, 2013 Rise Set
Actual Time 6:07 AM CDT 8:59 PM CDT
Civil Twilight 5:31 AM CDT 9:34 PM CDT
Nautical Twilight 4:46 AM CDT 10:19 PM CDT
Astronomical Twilight 3:52 AM CDT 11:12 PM CDT
Moon 1:42 AM CDT (8/1) 5:11 PM CDT (8/1)
Length of Visible Light 16h 02m
Length of Day
14h 51m
Waning Crescent, 23% of the Moon is Illuminated
Aug 1
Waning Crescent
Aug 6
New
Aug 14
First Quarter
Aug 20
Full
Aug 28
Last Quarter

Hourly Weather History & Observations

Time (CDT) Temp. Dew Point Humidity Pressure Visibility Wind Dir Wind Speed Gust Speed Precip Events Conditions
12:53 AM 59.0 °F 48.9 °F 69% 30.02 in 10.0 mi Calm Calm - N/A   Overcast
1:53 AM 61.0 °F 48.9 °F 64% 30.02 in 10.0 mi WSW 5.8 mph - N/A   Mostly Cloudy
2:53 AM 57.9 °F 50.0 °F 75% 30.02 in 10.0 mi SW 4.6 mph - N/A   Mostly Cloudy
3:53 AM 57.9 °F 50.0 °F 75% 30.02 in 10.0 mi Calm Calm - N/A   Mostly Cloudy
4:53 AM 55.0 °F 48.0 °F 77% 30.02 in 10.0 mi Calm Calm - N/A   Scattered Clouds
5:53 AM 55.9 °F 50.0 °F 80% 30.02 in 10.0 mi SSW 4.6 mph - N/A   Overcast
6:53 AM 57.0 °F 50.0 °F 77% 30.02 in 10.0 mi Calm Calm - N/A   Mostly Cloudy
7:53 AM 62.1 °F 50.0 °F 65% 30.00 in 10.0 mi Calm Calm - N/A   Scattered Clouds
8:53 AM 66.9 °F 51.1 °F 57% 30.00 in 10.0 mi Calm Calm - N/A   Scattered Clouds
9:53 AM 71.1 °F 52.0 °F 51% 30.00 in 10.0 mi Calm Calm - N/A   Clear
10:53 AM 75.0 °F 52.0 °F 44% 30.00 in 10.0 mi WNW 8.1 mph - N/A   Clear
11:53 AM 75.9 °F 48.9 °F 38% 29.99 in 10.0 mi West 8.1 mph - N/A   Partly Cloudy
12:53 PM 79.0 °F 50.0 °F 36% 29.98 in 10.0 mi WNW 11.5 mph - N/A   Partly Cloudy
1:53 PM 79.0 °F 48.9 °F 35% 29.96 in 10.0 mi WNW 10.4 mph 18.4 mph N/A   Partly Cloudy
2:53 PM 81.0 °F 51.1 °F 35% 29.94 in 10.0 mi WNW 15.0 mph 21.9 mph N/A   Scattered Clouds
3:53 PM 80.1 °F 50.0 °F 35% 29.92 in 10.0 mi WNW 9.2 mph - N/A   Partly Cloudy
4:53 PM 81.0 °F 51.1 °F 35% 29.91 in 10.0 mi NNW 15.0 mph 20.7 mph N/A   Mostly Cloudy
5:53 PM 81.0 °F 48.9 °F 33% 29.90 in 10.0 mi NNW 18.4 mph 23.0 mph N/A   Scattered Clouds
6:53 PM 78.1 °F 48.9 °F 36% 29.89 in 10.0 mi NW 15.0 mph - N/A   Clear
7:53 PM 75.9 °F 50.0 °F 40% 29.89 in 10.0 mi North 10.4 mph - N/A   Clear
8:53 PM 68.0 °F 52.0 °F 56% 29.89 in 10.0 mi NNW 6.9 mph - N/A   Clear
9:53 PM 64.0 °F 51.1 °F 63% 29.92 in 10.0 mi NNW 4.6 mph - N/A   Clear
10:53 PM 63.0 °F 51.1 °F 65% 29.92 in 10.0 mi WNW 3.5 mph - N/A   Clear
11:53 PM 62.1 °F 51.1 °F 67% 29.92 in 10.0 mi WNW 3.5 mph - N/A   Clear